EW3608 Weather Reports


Display with metric or nautical units.
time (UTC)temp
F
wind
direction
speed
MPH
gust
MPH
rain 1hr
in
rain 24hr
in
rain mn
in
humidity
%
barometer
mb
20210917213740 66 59 2.0 6.0 0.00 0.00 0.00 45 1025.6
20210917212841 66 83 3.0 7.0 0.00 0.00 0.00 45 1025.7
20210917211940 66 55 2.0 7.0 0.00 0.00 0.00 44 1025.9
20210917211040 66 91 3.0 10.0 0.00 0.00 0.00 46 1026.0
20210917210140 66 90 3.0 9.0 0.00 0.00 0.00 45 1026.1
20210917205240 65 76 2.0 6.0 0.00 0.00 0.00 45 1026.3
20210917204340 65 97 3.0 7.0 0.00 0.00 0.00 46 1026.5
20210917203440 65 112 2.0 7.0 0.00 0.00 0.00 46 1026.7
20210917202540 64 80 4.0 9.0 0.00 0.00 0.00 47 1026.8
20210917201640 64 95 3.0 8.0 0.00 0.00 0.00 47 1026.9
20210917200740 63 67 2.0 6.0 0.00 0.00 0.00 48 1026.9
20210917195840 63 84 2.0 10.0 0.00 0.00 0.00 48 1027.0
20210917194940 62 86 5.0 10.0 0.00 0.00 0.00 49 1027.3
20210917194040 62 70 3.0 10.0 0.00 0.00 0.00 49 1027.3
20210917193140 62 58 3.0 9.0 0.00 0.00 0.00 49 1027.5
20210917192240 61 44 3.0 9.0 0.00 0.00 0.00 50 1027.6
20210917191340 61 59 2.0 6.0 0.00 0.00 0.00 49 1027.7
20210917190440 61 119 2.0 6.0 0.00 0.00 0.00 51 1027.8
20210917185540 60 59 2.0 6.0 0.00 0.00 0.00 52 1028.0
20210917184640 60 60 3.0 7.0 0.00 0.00 0.00 51 1028.0
20210917183740 60 29 2.0 5.0 0.00 0.00 0.00 53 1028.2
20210917182840 59 53 2.0 7.0 0.00 0.00 0.00 52 1028.2
20210917181940 59 82 3.0 10.0 0.00 0.00 0.00 52 1028.5
20210917181040 58 81 3.0 7.0 0.00 0.00 0.00 53 1028.7
20210917180140 58 79 2.0 7.0 0.00 0.00 0.00 54 1028.9
20210917175240 58 29 2.0 5.0 0.00 0.00 0.00 54 1029.0
20210917174340 57 62 2.0 5.0 0.00 0.00 0.00 54 1029.2
20210917173440 57 73 2.0 7.0 0.00 0.00 0.00 54 1029.2
20210917172540 56 78 2.0 8.0 0.00 0.00 0.00 55 1029.4
20210917171640 56 77 2.0 6.0 0.00 0.00 0.00 56 1029.4
20210917170740 55 66 2.0 4.0 0.00 0.00 0.00 57 1029.6
20210917165840 55 81 3.0 6.0 0.00 0.00 0.00 56 1029.7
20210917164940 56 85 2.0 7.0 0.00 0.00 0.00 56 1029.7
20210917164040 55 98 1.0 7.0 0.00 0.00 0.00 58 1029.7
20210917163140 54 85 1.0 7.0 0.00 0.00 0.00 60 1029.8
20210917162240 52 67 1.0 5.0 0.00 0.00 0.00 61 1029.9
20210917161340 52 70 2.0 5.0 0.00 0.00 0.00 60 1030.0
20210917160440 52 56 2.0 4.0 0.00 0.00 0.00 62 1030.1
20210917155540 52 75 1.0 4.0 0.00 0.00 0.00 62 1030.0
20210917154640 52 74 2.0 4.0 0.00 0.00 0.00 62 1030.1
20210917153740 52 75 1.0 3.0 0.00 0.00 0.00 62 1030.0
20210917152840 52 74 1.0 4.0 0.00 0.00 0.00 62 1030.0
20210917151940 52 77 1.0 4.0 0.00 0.00 0.00 63 1030.0
20210917151040 51 71 1.0 5.0 0.00 0.00 0.00 63 1030.1
20210917150140 51 65 1.0 4.0 0.00 0.00 0.00 63 1030.0
20210917145240 51 63 1.0 4.0 0.00 0.00 0.00 63 1030.0
20210917144340 51 54 1.0 4.0 0.00 0.00 0.00 63 1030.0
20210917143440 51 14 0.0 3.0 0.00 0.00 0.00 64 1030.0
20210917142540 51 14 0.0 2.0 0.00 0.00 0.00 63 1029.9
20210917141640 51 14 0.0 1.0 0.00 0.00 0.00 64 1030.0
20210917140740 51 14 1.0 2.0 0.00 0.00 0.00 64 1030.0
20210917135840 51 14 0.0 2.0 0.00 0.00 0.00 65 1029.9
20210917134940 51 14 1.0 3.0 0.00 0.00 0.00 65 1029.8
20210917134040 50 14 1.0 3.0 0.00 0.00 0.00 65 1029.8
20210917133140 50 14 0.0 3.0 0.00 0.00 0.00 66 1029.8
20210917132240 50 14 1.0 3.0 0.00 0.00 0.00 66 1029.7
20210917131340 50 14 0.0 3.0 0.00 0.00 0.00 69 1029.7
20210917130440 49 14 0.0 1.0 0.00 0.00 0.00 69 1029.5
20210917125541 49 0 0.0 0.0 0.00 0.00 0.00 69 1029.4
20210917124640 49 0 0.0 0.0 0.00 0.00 0.00 69 1029.2
20210917123740 48 0 0.0 0.0 0.00 0.00 0.00 70 1029.3
20210917122840 48 0 0.0 0.0 0.00 0.00 0.00 71 1029.1
20210917121941 48 0 0.0 0.0 0.00 0.00 0.00 71 1029.1
20210917121040 48 0 0.0 0.0 0.00 0.00 0.00 71 1029.0
20210917120140 48 0 0.0 0.0 0.00 0.00 0.00 71 1028.9
20210917115240 48 0 0.0 0.0 0.00 0.00 0.00 69 1028.8
20210917114341 49 14 0.0 1.0 0.00 0.00 0.00 68 1028.7
20210917113440 49 13 1.0 4.0 0.00 0.00 0.00 67 1028.6
20210917112540 49 23 2.0 6.0 0.00 0.00 0.00 67 1028.5
20210917111640 49 49 1.0 6.0 0.00 0.00 0.00 68 1028.2
20210917110740 49 65 0.0 4.0 0.00 0.00 0.00 68 1028.1
20210917105840 50 67 0.0 2.0 0.00 0.00 0.00 68 1027.9
20210917104940 50 67 0.0 2.0 0.00 0.00 0.00 67 1027.8
20210917104040 50 67 0.0 2.0 0.00 0.00 0.00 67 1027.7
20210917103140 50 67 0.0 1.0 0.00 0.00 0.00 66 1027.5
20210917102240 51 67 0.0 3.0 0.00 0.00 0.00 65 1027.3
20210917101340 52 67 0.0 4.0 0.00 0.00 0.00 64 1027.1
20210917100440 52 69 1.0 4.0 0.00 0.00 0.00 63 1026.9
20210917095540 53 63 2.0 7.0 0.00 0.00 0.00 62 1026.7
20210917094640 54 12 2.0 7.0 0.00 0.00 0.00 60 1026.4
20210917093740 54 103 1.0 5.0 0.00 0.00 0.00 60 1026.2
20210917092840 56 74 2.0 7.0 0.00 0.00 0.00 59 1025.6
20210917091940 57 70 3.0 8.0 0.00 0.00 0.00 58 1025.4
20210917091040 58 58 3.0 8.0 0.00 0.00 0.00 57 1025.2
20210917090140 59 45 3.0 8.0 0.00 0.00 0.00 57 1024.9
20210917085240 59 30 3.0 9.0 0.00 0.00 0.00 56 1024.7
20210917084340 60 35 2.0 6.0 0.00 0.00 0.00 55 1024.4
20210917083440 60 360 1.0 7.0 0.00 0.00 0.00 55 1024.4
20210917082540 61 10 2.0 8.0 0.00 0.00 0.00 54 1024.2
20210917081641 61 1 4.0 12.0 0.00 0.00 0.00 53 1024.0
20210917080740 61 355 4.0 13.0 0.00 0.00 0.00 52 1023.7
20210917075840 62 353 3.0 13.0 0.00 0.00 0.00 51 1023.6
20210917074940 62 1 4.0 12.0 0.00 0.00 0.00 50 1023.4
20210917074040 63 355 4.0 13.0 0.00 0.00 0.00 49 1023.3
20210917073140 64 9 4.0 10.0 0.00 0.00 0.00 47 1023.0
20210917072241 64 12 4.0 10.0 0.00 0.00 0.00 45 1022.7
20210917071340 65 5 5.0 14.0 0.00 0.00 0.00 44 1022.1
20210917070440 66 15 4.0 15.0 0.00 0.00 0.00 42 1021.5
20210917065540 66 48 2.0 11.0 0.00 0.00 0.00 41 1021.3
20210917064640 67 25 4.0 11.0 0.00 0.00 0.00 40 1020.5
20210917063740 66 354 4.0 10.0 0.00 0.00 0.00 39 1020.0
20210917062840 66 18 2.0 6.0 0.00 0.00 0.00 37 1019.6
20210917061940 66 15 3.0 9.0 0.00 0.00 0.00 37 1019.2
20210917061040 63 10 3.0 11.0 0.00 0.00 0.00 39 1018.5
20210917060140 62 271 1.0 3.0 0.00 0.00 0.00 44 1017.3
20210917055240 62 267 1.0 3.0 0.00 0.00 0.00 42 1016.9
20210917054340 62 267 1.0 2.0 0.00 0.00 0.00 43 1016.7
20210917053440 61 267 0.0 2.0 0.00 0.00 0.00 46 1016.6
20210917052540 61 267 1.0 2.0 0.00 0.00 0.00 45 1016.5
20210917051640 61 0 0.0 0.0 0.00 0.00 0.00 49 1016.3
20210917050740 61 267 0.0 2.0 0.00 0.00 0.00 50 1016.1
20210917045840 61 267 1.0 3.0 0.00 0.00 0.00 46 1016.1
20210917044940 60 267 0.0 2.0 0.00 0.00 0.00 50 1015.9
20210917044040 60 267 1.0 2.0 0.00 0.00 0.00 53 1015.8
20210917043140 60 267 1.0 2.0 0.00 0.00 0.00 53 1015.7
20210917042240 60 267 0.0 2.0 0.00 0.00 0.00 53 1015.7
20210917041340 61 267 0.0 2.0 0.00 0.00 0.00 52 1015.7
20210917040440 61 267 0.0 2.0 0.00 0.00 0.00 51 1015.5
20210917035540 61 267 0.0 1.0 0.00 0.00 0.00 51 1015.4
20210917034640 62 267 0.0 1.0 0.00 0.00 0.00 50 1015.3
20210917033741 62 267 0.0 1.0 0.00 0.00 0.00 49 1015.2
20210917032841 62 267 0.0 1.0 0.00 0.00 0.00 47 1015.1
20210917031940 63 267 0.0 1.0 0.00 0.00 0.00 45 1014.9
20210917031040 64 0 0.0 0.0 0.00 0.00 0.00 44 1014.9
20210917030140 65 267 0.0 1.0 0.00 0.00 0.00 43 1014.7
20210917025240 66 0 0.0 0.0 0.00 0.00 0.00 41 1014.6
20210917024340 67 0 0.0 0.0 0.00 0.00 0.00 40 1014.5
20210917023440 67 267 0.0 4.0 0.00 0.00 0.00 38 1014.3
20210917022540 68 267 0.0 4.0 0.00 0.00 0.00 36 1014.0
20210917021640 69 267 0.0 4.0 0.00 0.00 0.00 34 1013.9
20210917020740 70 267 0.0 5.0 0.00 0.00 0.00 33 1013.7
20210917015840 71 267 2.0 5.0 0.00 0.00 0.00 31 1013.6
20210917014940 71 269 1.0 5.0 0.00 0.00 0.00 32 1013.5
20210917014040 72 264 0.0 3.0 0.00 0.00 0.00 33 1013.3
20210917013140 74 264 0.0 3.0 0.00 0.00 0.00 30 1013.0
20210917012240 75 264 0.0 2.0 0.00 0.00 0.00 28 1012.9
20210917011340 77 264 0.0 1.0 0.00 0.00 0.00 27 1012.8
20210917010440 79 264 0.0 2.0 0.00 0.00 0.00 23 1012.7
20210917005540 80 264 0.0 3.0 0.00 0.00 0.00 23 1012.7
20210917004640 81 269 2.0 5.0 0.00 0.00 0.00 22 1012.6
20210917003740 84 271 0.0 4.0 0.00 0.00 0.00 24 1012.5
20210917002841 86 271 1.0 3.0 0.00 0.00 0.00 21 1012.6
20210917001940 88 317 1.0 4.0 0.00 0.00 0.00 17 1012.5
20210917001040 90 0 0.0 1.0 0.00 0.00 0.00 18 1012.3
20210917000140 90 28 0.0 1.0 0.00 0.00 0.00 19 1012.1
20210916235240 90 0 0.0 0.0 0.00 0.00 0.00 18 1012.0
20210916234340 89 0 0.0 0.0 0.00 0.00 0.00 16 1011.9
20210916233440 88 0 0.0 0.0 0.00 0.00 0.00 19 1011.8
20210916232540 87 0 0.0 0.0 0.00 0.00 0.00 21 1011.7
20210916231640 86 0 0.0 0.0 0.00 0.00 0.00 20 1011.7
20210916230740 85 28 0.0 2.0 0.00 0.00 0.00 19 1011.7
20210916225840 85 28 1.0 2.0 0.00 0.00 0.00 17 1011.7
20210916224940 85 22 1.0 3.0 0.00 0.00 0.00 16 1011.6
20210916224040 85 34 1.0 5.0 0.00 0.00 0.00 15 1011.5
20210916223140 86 93 1.0 5.0 0.00 0.00 0.00 15 1011.5
20210916222240 86 92 2.0 7.0 0.00 0.00 0.00 16 1011.5
20210916221340 86 70 2.0 6.0 0.00 0.00 0.00 15 1011.5
20210916220440 86 14 2.0 8.0 0.00 0.00 0.00 15 1011.7
20210916215540 86 8 3.0 7.0 0.00 0.00 0.00 15 1011.7
20210916214641 87 9 2.0 7.0 0.00 0.00 0.00 14 1011.7